Regional Weather Roundup
Issued by NWS Albany, NY

Home | Current Version | Previous Version | Text Only | Print | Product List | Glossary On
Versions: 1 2 3 4 5 6 7 8 9 10 11 12 13 14 15 16 17 18 19 20 21 22 23 24 25 26 27
000
ASUS41 KALY 201910
RWRALY

NEW YORK STATE HOURLY WEATHER ROUNDUP
NATIONAL WEATHER SERVICE ALBANY NY
300 PM EDT SUN APR 20 2014

NOTE: "FAIR" INDICATES FEW OR NO CLOUDS BELOW 12,000 FEET WITH NO
SIGNIFICANT WEATHER AND/OR NO OBSTRUCTIONS TO VISIBILITY.

NYZ032-033-038>043-046>054-057>066-NYZ062>081-202000-
EAST


CITY           SKY/WX    TMP DP  RH WIND       PRES   REMARKS
ALBANY         PTSUNNY   60  16  18 VRB6      30.39F
GLENS FALLS    MOSUNNY   62  21  20 VRB5      30.38F
POUGHKEEPSIE   SUNNY     61  21  21 VRB5      30.39F
NEWBURGH       SUNNY     59  27  29 VRB7      30.41F
MONTGOMERY     SUNNY     61  24  24 VRB3      30.38F
WHITE PLAINS   SUNNY     55  22  27 VRB7      30.43F
ISLIP          PTSUNNY   52  27  38 SE15G22   30.44F
NEW YORK CITY  PTSUNNY   54  24  31 S10       30.45F
CENTRAL PARK   SUNNY     55  25  31 VRB3      30.47F
$$

NYZ005>009-017-018-044>046-055-056-202000-
CENTRAL


CITY           SKY/WX    TMP DP  RH WIND       PRES   REMARKS
FULTON         SUNNY     62  27  26 VRB5      30.32F
SYRACUSE       PTSUNNY   64  28  25 N8        30.32F
ROME           SUNNY     62  25  24 S10       30.35F
ELMIRA         MOSUNNY   67  24  19 SW7       30.30F
BINGHAMTON     PTSUNNY   62  25  24 S12G18    30.32F
MONTICELLO     SUNNY     57  23  26 S6        30.39F
$$

NYZ026>034-041>043-202000-
NORTH


CITY           SKY/WX    TMP DP  RH WIND       PRES   REMARKS
WATERTOWN      MOSUNNY   61  25  25 W7        30.32F
FORT DRUM      NOT AVBL
MASSENA        MOSUNNY   59  21  23 VRB3      30.35F
SARANAC LAKE   MOSUNNY   57   8  14 W12       30.30F
PLATTSBURGH    MOSUNNY   53  18  25 SE13      30.35F
$$

NYZ001>004-010>016-019>021-202000-
WEST


CITY           SKY/WX    TMP DP  RH WIND       PRES   REMARKS
NIAGARA FALLS  MOSUNNY   62  33  33 N9        30.27F
BUFFALO        MOSUNNY   64  19  17 VRB3      30.27F
DUNKIRK        SUNNY     61  28  28 N10       30.27F
JAMESTOWN      SUNNY     66  23  19 S3        30.27F
WELLSVILLE     MOSUNNY   66  11  11 VRB5      30.30F
ROCHESTER      PTSUNNY   67  20  16 VRB3      30.28F
PENN YAN       SUNNY     64  27  24 CALM      30.30F
$$

             KEY
       WCI = WIND CHILL INDEX
       VSB = VISIBILITY
       HX  = HEAT INDEX
$$



USA.gov is the U.S. government's official web portal to all federal, state and local government web resources and services.